Location: Unspecified
(0.0000°N, 0.0000°E)
Time: 06:35:13
(UTC+00:00)

Transit 2A - Pass Details

Date: 27 November 2019
Orbit: 602 x 957 km, 66.7° (Epoch: 11 December)

Event Time Altitude Azimuth Distance (km) Brightness Sun altitude
Rises 21:23:16 0° 311° (NW) 3,033 - -48.9°
Reaches altitude 10° 21:26:05 10° 293° (WNW) 2,182 - -49.5°
Maximum altitude 21:29:37 19° 248° (WSW) 1,709 - -50.2°
Drops below altitude 10° 21:33:24 10° 202° (SSW) 2,357 - -51.0°
Sets 21:36:36 0° 186° (S) 3,364 - -51.6°
